When you browse on this site, cookies collect data to enhance your experience and personalize the content and advertising you see.
Visit our Privacy Policy to learn more. By continuing to use the site, you agree to this use of cookies and data.
  • în România
  • Lista ţărilor
  • Pe 7 zile
  • Temperatura apei
  • Meteo pe hartă
  • Widget-uri
  • user-avatar
    Intrare

    Meteo pe oră la Aylesbury

    Astăzi, 2 Iunie, Marţi

    Timp Temperatura Precipitaţii Vânt Presiune Umiditate
    00:00 +11°C° 0 mm 3 m/s 759 mmHg 92%
    01:00 +10°C° 0 mm 2 m/s 759 mmHg 91%
    02:00 +9°C° 0 mm 2 m/s 758 mmHg 90%
    03:00 +8°C° 0 mm 2 m/s 758 mmHg 90%
    04:00 +9°C° 0 mm 2 m/s 758 mmHg 88%
    05:00 +10°C° 0 mm 2 m/s 758 mmHg 86%
    06:00 +12°C° 0 mm 2 m/s 758 mmHg 84%
    07:00 +12°C° 0 mm 3 m/s 758 mmHg 78%
    08:00 +14°C° 0 mm 3 m/s 758 mmHg 71%
    09:00 +17°C° 0 mm 3 m/s 758 mmHg 65%
    10:00 +18°C° 0 mm 3 m/s 757 mmHg 61%
    11:00 +19°C° 0 mm 3 m/s 757 mmHg 57%
    12:00 +20°C° 0 mm 3 m/s 757 mmHg 54%
    13:00 +20°C° 0 mm 3 m/s 756 mmHg 54%
    14:00 +20°C° 0 mm 3 m/s 756 mmHg 54%
    15:00 +21°C° 0 mm 3 m/s 755 mmHg 54%
    16:00 +20°C° 0 mm 2 m/s 755 mmHg 58%
    17:00 +20°C° 0 mm 2 m/s 754 mmHg 63%
    18:00 +20°C° 0 mm 2 m/s 754 mmHg 67%
    19:00 +19°C° 0 mm 1 m/s 753 mmHg 70%
    20:00 +16°C° 0 mm 1 m/s 753 mmHg 73%
    21:00 +14°C° 0 mm 1 m/s 753 mmHg 76%
    22:00 +14°C° 0 mm 1 m/s 752 mmHg 76%
    23:00 +14°C° 0 mm 1 m/s 752 mmHg 75%

    Mâine, 3 Iunie, Miercuri

    Timp Temperatura Precipitaţii Vânt Presiune Umiditate
    00:00 +14°C° 0 mm 2 m/s 752 mmHg 75%
    01:00 +13°C° 0 mm 2 m/s 751 mmHg 77%
    02:00 +13°C° 0 mm 2 m/s 750 mmHg 79%
    03:00 +13°C° 0 mm 2 m/s 750 mmHg 81%
    04:00 +13°C° 0 mm 2 m/s 749 mmHg 80%
    05:00 +14°C° 0 mm 2 m/s 749 mmHg 78%
    06:00 +14°C° 0 mm 2 m/s 749 mmHg 76%
    07:00 +13°C° 0 mm 3 m/s 749 mmHg 77%
    08:00 +14°C° 0 mm 3 m/s 748 mmHg 78%
    09:00 +14°C° 0 mm 4 m/s 748 mmHg 79%
    10:00 +14°C° 0.1 mm 4 m/s 748 mmHg 79%
    11:00 +13°C° 0.1 mm 4 m/s 748 mmHg 80%
    12:00 +13°C° 0.1 mm 5 m/s 748 mmHg 80%
    13:00 +13°C° 0 mm 5 m/s 748 mmHg 80%
    14:00 +13°C° 0 mm 5 m/s 748 mmHg 80%
    15:00 +13°C° 0 mm 5 m/s 747 mmHg 80%
    16:00 +13°C° 0 mm 5 m/s 747 mmHg 79%
    17:00 +13°C° 0 mm 5 m/s 747 mmHg 79%
    18:00 +13°C° 0 mm 5 m/s 747 mmHg 79%
    19:00 +12°C° 0 mm 4 m/s 747 mmHg 80%
    20:00 +11°C° 0 mm 4 m/s 748 mmHg 81%
    21:00 +11°C° 0 mm 4 m/s 748 mmHg 82%
    22:00 +10°C° 0 mm 4 m/s 748 mmHg 86%
    23:00 +9°C° 0 mm 3 m/s 747 mmHg 89%

    Poimâine, 4 Iunie, Joi

    Timp Temperatura Precipitaţii Vânt Presiune Umiditate
    00:00 +8°C° 0 mm 3 m/s 747 mmHg 93%
    01:00 +8°C° 0 mm 3 m/s 747 mmHg 94%
    02:00 +8°C° 0 mm 3 m/s 747 mmHg 96%
    03:00 +8°C° 0 mm 3 m/s 747 mmHg 97%
    04:00 +7°C° 0 mm 4 m/s 746 mmHg 93%
    05:00 +8°C° 0 mm 5 m/s 746 mmHg 90%
    06:00 +8°C° 0 mm 5 m/s 746 mmHg 86%
    07:00 +9°C° 0 mm 5 m/s 746 mmHg 81%
    08:00 +10°C° 0 mm 5 m/s 746 mmHg 75%
    09:00 +12°C° 0 mm 5 m/s 746 mmHg 69%
    10:00 +12°C° 0 mm 5 m/s 745 mmHg 66%
    11:00 +13°C° 0 mm 5 m/s 745 mmHg 62%
    12:00 +14°C° 0 mm 5 m/s 745 mmHg 58%
    13:00 +13°C° 0.1 mm 5 m/s 744 mmHg 61%
    14:00 +13°C° 0.1 mm 4 m/s 744 mmHg 63%
    15:00 +13°C° 0.1 mm 4 m/s 744 mmHg 66%
    16:00 +13°C° 0.2 mm 4 m/s 743 mmHg 69%
    17:00 +13°C° 0.2 mm 3 m/s 743 mmHg 73%
    18:00 +13°C° 0.2 mm 3 m/s 743 mmHg 77%
    19:00 +11°C° 0.3 mm 3 m/s 743 mmHg 82%
    20:00 +10°C° 0.3 mm 3 m/s 743 mmHg 87%
    21:00 +9°C° 0.3 mm 3 m/s 743 mmHg 93%
    22:00 +8°C° 0.2 mm 3 m/s 743 mmHg 93%
    23:00 +7°C° 0.2 mm 4 m/s 742 mmHg 94%

    5 Iunie, Vineri

    Timp Temperatura Precipitaţii Vânt Presiune Umiditate
    00:00 +6°C° 0.2 mm 4 m/s 742 mmHg 95%
    01:00 +7°C° 0.1 mm 3 m/s 742 mmHg 96%
    02:00 +7°C° 0.1 mm 3 m/s 742 mmHg 96%
    03:00 +7°C° 0.1 mm 2 m/s 742 mmHg 97%
    04:00 +8°C° 0 mm 3 m/s 742 mmHg 95%
    05:00 +8°C° 0 mm 3 m/s 742 mmHg 93%
    06:00 +8°C° 0 mm 3 m/s 742 mmHg 91%
    07:00 +9°C° 0 mm 3 m/s 742 mmHg 82%
    08:00 +11°C° 0 mm 3 m/s 743 mmHg 73%
    09:00 +12°C° 0 mm 3 m/s 743 mmHg 63%
    10:00 +13°C° 0.2 mm 4 m/s 742 mmHg 64%
    11:00 +14°C° 0.2 mm 4 m/s 742 mmHg 64%
    12:00 +14°C° 0.2 mm 5 m/s 742 mmHg 65%
    13:00 +14°C° 0.4 mm 5 m/s 742 mmHg 67%
    14:00 +13°C° 0.4 mm 6 m/s 742 mmHg 70%
    15:00 +13°C° 0.4 mm 6 m/s 741 mmHg 72%
    16:00 +13°C° 0.1 mm 6 m/s 741 mmHg 72%
    17:00 +11°C° 0.1 mm 6 m/s 741 mmHg 72%
    18:00 +12°C° 0.1 mm 5 m/s 741 mmHg 72%
    19:00 +10°C° 0 mm 5 m/s 741 mmHg 76%
    20:00 +8°C° 0 mm 4 m/s 742 mmHg 80%
    21:00 +7°C° 0 mm 4 m/s 742 mmHg 84%
    22:00 +6°C° 0 mm 4 m/s 742 mmHg 86%
    23:00 +5°C° 0 mm 4 m/s 742 mmHg 87%

    6 Iunie, Sâmbătă

    Timp Temperatura Precipitaţii Vânt Presiune Umiditate
    00:00 +5°C° 0 mm 4 m/s 742 mmHg 89%
    01:00 +5°C° 0 mm 4 m/s 742 mmHg 89%
    02:00 +3°C° 0 mm 5 m/s 743 mmHg 89%
    03:00 +3°C° 0 mm 5 m/s 743 mmHg 89%
    04:00 +4°C° 0 mm 6 m/s 743 mmHg 85%
    05:00 +4°C° 0 mm 6 m/s 743 mmHg 81%
    06:00 +5°C° 0 mm 6 m/s 744 mmHg 77%
    07:00 +6°C° 0.1 mm 7 m/s 744 mmHg 72%
    08:00 +7°C° 0.1 mm 8 m/s 744 mmHg 67%
    09:00 +10°C° 0.1 mm 8 m/s 745 mmHg 62%
    10:00 +10°C° 0.1 mm 8 m/s 745 mmHg 60%
    11:00 +10°C° 0.1 mm 8 m/s 745 mmHg 58%
    12:00 +11°C° 0.1 mm 8 m/s 745 mmHg 56%
    13:00 +11°C° 0.1 mm 8 m/s 745 mmHg 56%
    14:00 +11°C° 0.1 mm 8 m/s 745 mmHg 57%
    15:00 +11°C° 0.1 mm 8 m/s 746 mmHg 57%
    16:00 +10°C° 0.1 mm 7 m/s 746 mmHg 61%
    17:00 +10°C° 0.1 mm 6 m/s 746 mmHg 65%
    18:00 +9°C° 0.1 mm 5 m/s 746 mmHg 69%
    19:00 +8°C° 0 mm 5 m/s 746 mmHg 72%
    20:00 +7°C° 0 mm 5 m/s 746 mmHg 75%
    21:00 +6°C° 0 mm 4 m/s 747 mmHg 78%
    22:00 +5°C° 0 mm 4 m/s 747 mmHg 80%
    23:00 +4°C° 0 mm 4 m/s 747 mmHg 82%

    7 Iunie, Duminică

    Timp Temperatura Precipitaţii Vânt Presiune Umiditate
    00:00 +2°C° 0 mm 5 m/s 747 mmHg 85%
    01:00 +3°C° 0 mm 4 m/s 747 mmHg 86%
    02:00 +3°C° 0 mm 4 m/s 747 mmHg 88%
    03:00 +3°C° 0 mm 4 m/s 747 mmHg 90%
    04:00 +3°C° 0 mm 5 m/s 747 mmHg 85%
    05:00 +4°C° 0 mm 6 m/s 748 mmHg 80%
    06:00 +5°C° 0 mm 6 m/s 748 mmHg 75%
    07:00 +7°C° 0 mm 6 m/s 748 mmHg 70%
    08:00 +9°C° 0 mm 7 m/s 749 mmHg 65%
    09:00 +10°C° 0 mm 7 m/s 749 mmHg 59%
    10:00 +10°C° 0.1 mm 7 m/s 749 mmHg 60%
    11:00 +11°C° 0.1 mm 6 m/s 749 mmHg 61%
    12:00 +11°C° 0.1 mm 6 m/s 750 mmHg 62%
    13:00 +13°C° 0.1 mm 6 m/s 750 mmHg 60%
    14:00 +13°C° 0.1 mm 6 m/s 750 mmHg 59%
    15:00 +14°C° 0.1 mm 6 m/s 749 mmHg 57%
    16:00 +13°C° 0.1 mm 6 m/s 749 mmHg 62%
    17:00 +13°C° 0.1 mm 5 m/s 750 mmHg 68%
    18:00 +12°C° 0.1 mm 4 m/s 750 mmHg 74%
    19:00 +11°C° 0.1 mm 4 m/s 750 mmHg 77%
    20:00 +10°C° 0.1 mm 4 m/s 750 mmHg 81%
    21:00 +8°C° 0.1 mm 4 m/s 750 mmHg 84%
    22:00 +7°C° 0 mm 4 m/s 750 mmHg 86%
    23:00 +6°C° 0 mm 5 m/s 750 mmHg 87%
    Arată mai mult